| time (UTC) | temp F | wind direction | speed MPH | gust MPH | rain 1hr in | rain 24hr in | rain mn in | humidity % | barometer mb |
| 20260831111714 | 85 | 180 | 2.0 | 8.0 | 0.00 | 3.54 | 0.00 | 33 | |
| 20260831111214 | 85 | 180 | 3.0 | 4.0 | 0.00 | 3.54 | 0.00 | 33 | |
| 20260831110714 | 85 | 180 | 0.0 | 4.0 | 0.00 | 3.54 | 0.00 | 32 | |
| 20260831110214 | 85 | 180 | 3.0 | 4.0 | 0.00 | 3.54 | 0.00 | 33 | |
| 20260831105714 | 84 | 180 | 0.0 | 5.0 | 0.00 | 3.54 | 0.00 | 34 | |
| 20260831105214 | 84 | 180 | 0.0 | 4.0 | 0.00 | 3.54 | 0.00 | 35 | |
| 20260831104714 | 84 | 180 | 2.0 | 6.0 | 0.00 | 3.58 | 0.00 | 36 | |
| 20260831104214 | 84 | 180 | 1.0 | 8.0 | 0.00 | 3.58 | 0.00 | 34 | |
| 20260831103714 | 84 | 180 | 3.0 | 9.0 | 0.00 | 3.58 | 0.00 | 35 | |
| 20260831103214 | 84 | 180 | 0.0 | 4.0 | 0.00 | 3.58 | 0.00 | 34 | |
| 20260831102714 | 84 | 180 | 0.0 | 4.0 | 0.00 | 3.58 | 0.00 | 36 | |
| 20260831102214 | 84 | 180 | 0.0 | 6.0 | 0.00 | 3.58 | 0.00 | 36 | |
| 20260831101714 | 83 | 180 | 0.0 | 6.0 | 0.00 | 3.58 | 0.00 | 36 | |
| 20260831101214 | 83 | 180 | 0.0 | 6.0 | 0.00 | 3.58 | 0.00 | 36 | |
| 20260831100714 | 83 | 180 | 2.0 | 6.0 | 0.00 | 3.58 | 0.00 | 37 | |
| 20260831100214 | 83 | 180 | 3.0 | 5.0 | 0.00 | 3.58 | 0.00 | 37 | |
| 20260831095714 | 83 | 180 | 3.0 | 5.0 | 0.00 | 3.58 | 0.00 | 37 | |
| 20260831095214 | 83 | 180 | 1.0 | 2.0 | 0.00 | 3.58 | 0.00 | 40 | |
| 20260831094714 | 82 | 180 | 1.0 | 8.0 | 0.00 | 3.59 | 0.00 | 39 | |
| 20260831094214 | 82 | 180 | 6.0 | 8.0 | 0.00 | 3.59 | 0.00 | 39 | |
| 20260831093714 | 83 | 180 | 0.0 | 4.0 | 0.00 | 3.59 | 0.00 | 39 | |
| 20260831093214 | 82 | 180 | 0.0 | 2.0 | 0.00 | 3.59 | 0.00 | 43 | |
| 20260831092714 | 82 | 180 | 0.0 | 7.0 | 0.00 | 3.59 | 0.00 | 42 | |
| 20260831092214 | 81 | 180 | 0.0 | 5.0 | 0.00 | 3.59 | 0.00 | 43 | |
| 20260831091714 | 81 | 180 | 1.0 | 7.0 | 0.00 | 3.59 | 0.00 | 42 | |
| 20260831091214 | 81 | 180 | 0.0 | 2.0 | 0.00 | 3.59 | 0.00 | 44 | |
| 20260831090714 | 80 | 180 | 0.0 | 3.0 | 0.00 | 3.59 | 0.00 | 44 | |
| 20260831090214 | 80 | 180 | 2.0 | 6.0 | 0.00 | 3.59 | 0.00 | 45 | |
| 20260831085714 | 80 | 180 | 0.0 | 4.0 | 0.00 | 3.59 | 0.00 | 45 | |
| 20260831085214 | 79 | 180 | 3.0 | 6.0 | 0.00 | 3.59 | 0.00 | 47 | |
| 20260831084714 | 79 | 180 | 2.0 | 2.0 | 0.00 | 3.59 | 3.59 | 48 | |
| 20260831084214 | 78 | 180 | 0.0 | 5.0 | 0.00 | 3.59 | 3.59 | 50 | |
| 20260831083714 | 78 | 180 | 0.0 | 4.0 | 0.00 | 3.59 | 3.59 | 53 | |
| 20260831082714 | 77 | 180 | 2.0 | 4.0 | 0.00 | 3.59 | 3.59 | 53 | |
| 20260831082214 | 77 | 180 | 0.0 | 2.0 | 0.00 | 3.59 | 3.59 | 56 | |
| 20260831081714 | 76 | 180 | 1.0 | 4.0 | 0.00 | 3.59 | 3.59 | 57 | |
| 20260831081214 | 76 | 180 | 0.0 | 5.0 | 0.00 | 3.59 | 3.59 | 60 | |
| 20260831080714 | 75 | 180 | 1.0 | 3.0 | 0.00 | 3.59 | 3.59 | 61 | |
| 20260831080214 | 75 | 180 | 0.0 | 5.0 | 0.00 | 3.59 | 3.59 | 61 | |
| 20260831075714 | 75 | 180 | 0.0 | 4.0 | 0.00 | 3.59 | 3.59 | 62 | |
| 20260831075214 | 75 | 180 | 1.0 | 2.0 | 0.00 | 3.59 | 3.59 | 65 | |
| 20260831074714 | 74 | 180 | 0.0 | 1.0 | 0.00 | 3.59 | 3.59 | 67 | |
| 20260831074215 | 74 | 180 | 0.0 | 3.0 | 0.00 | 3.59 | 3.59 | 72 | |
| 20260831073714 | 73 | 180 | 0.0 | 0.0 | 0.00 | 3.59 | 3.59 | 81 | |
| 20260831073214 | 72 | 180 | 0.0 | 0.0 | 0.00 | 3.59 | 3.59 | 86 | |
| 20260831072714 | 71 | 180 | 0.0 | 0.0 | 0.00 | 3.59 | 3.59 | 86 | |
| 20260831072214 | 70 | 180 | 0.0 | 0.0 | 0.00 | 3.59 | 3.59 | 95 | |
| 20260831071714 | 69 | 180 | 0.0 | 0.0 | 0.00 | 3.59 | 3.59 | 98 | |
| 20260831071214 | 68 | 180 | 0.0 | 0.0 | 0.00 | 3.59 | 3.59 | 100 | |
| 20260831070714 | 67 | 180 | 0.0 | 0.0 | 0.00 | 3.59 | 3.59 | 100 | |
| 20260831070214 | 66 | 180 | 0.0 | 0.0 | 0.00 | 3.59 | 3.59 | 100 | |
| 20260831065714 | 65 | 180 | 0.0 | 0.0 | 0.00 | 3.59 | 3.59 | 100 | |
| 20260831065214 | 65 | 180 | 0.0 | 0.0 | 0.00 | 3.59 | 3.59 | 100 | |
| 20260831064714 | 64 | 180 | 0.0 | 0.0 | 0.00 | 3.59 | 3.59 | 100 | |
| 20260831064214 | 64 | 180 | 0.0 | 0.0 | 0.00 | 3.59 | 3.59 | 100 | |
| 20260831063714 | 63 | 180 | 0.0 | 0.0 | 0.00 | 3.59 | 3.59 | 100 | |
| 20260831063214 | 62 | 180 | 0.0 | 0.0 | 0.00 | 3.59 | 3.59 | 100 | |
| 20260831062714 | 62 | 180 | 0.0 | 0.0 | 0.00 | 3.59 | 3.59 | 100 | |
| 20260831062214 | 61 | 180 | 0.0 | 0.0 | 0.00 | 3.59 | 3.59 | 100 | |
| 20260831061714 | 61 | 180 | 0.0 | 0.0 | 0.00 | 3.59 | 3.59 | 100 | |
| 20260831061214 | 60 | 180 | 0.0 | 0.0 | 0.00 | 3.59 | 3.59 | 100 | |
| 20260831060714 | 59 | 180 | 0.0 | 0.0 | 0.00 | 3.59 | 3.59 | 100 | |
| 20260831060214 | 59 | 180 | 0.0 | 0.0 | 0.00 | 3.59 | 3.59 | 100 | |
| 20260831055714 | 58 | 180 | 0.0 | 0.0 | 0.00 | 3.59 | 3.59 | 100 | |
| 20260831055214 | 57 | 180 | 0.0 | 0.0 | 0.00 | 3.59 | 3.59 | 100 | |
| 20260831054714 | 57 | 180 | 0.0 | 0.0 | 0.00 | 3.59 | 3.59 | 100 | |
| 20260831054214 | 56 | 180 | 0.0 | 0.0 | 0.00 | 3.59 | 3.59 | 100 | |
| 20260831053714 | 56 | 180 | 0.0 | 0.0 | 0.00 | 3.59 | 3.59 | 100 | |
| 20260831053215 | 55 | 180 | 0.0 | 0.0 | 0.00 | 3.59 | 3.59 | 100 | |
| 20260831052715 | 55 | 180 | 0.0 | 0.0 | 0.00 | 3.59 | 3.59 | 100 | |
| 20260831052214 | 54 | 180 | 0.0 | 0.0 | 0.00 | 3.59 | 3.59 | 100 | |
| 20260831051715 | 53 | 180 | 0.0 | 0.0 | 0.01 | 3.59 | 3.59 | 100 | |
| 20260831051215 | 52 | 180 | 0.0 | 0.0 | 0.01 | 3.59 | 3.59 | 100 | |
| 20260831050715 | 52 | 180 | 0.0 | 0.0 | 0.01 | 3.59 | 3.59 | 100 | |
| 20260831050215 | 52 | 180 | 0.0 | 0.0 | 0.01 | 3.59 | 3.59 | 100 | |
| 20260831045715 | 52 | 180 | 0.0 | 0.0 | 0.01 | 3.59 | 3.59 | 100 | |
| 20260831045215 | 51 | 180 | 0.0 | 0.0 | 0.01 | 3.59 | 3.59 | 100 | |
| 20260831044715 | 51 | 180 | 0.0 | 0.0 | 0.01 | 3.59 | 3.59 | 100 | |
| 20260831044215 | 51 | 180 | 0.0 | 0.0 | 0.01 | 3.59 | 3.59 | 100 | |
| 20260831043715 | 51 | 180 | 0.0 | 0.0 | 0.01 | 3.59 | 3.59 | 100 | |
| 20260831043215 | 51 | 180 | 0.0 | 0.0 | 0.01 | 3.59 | 3.59 | 100 | |
| 20260831042715 | 51 | 180 | 0.0 | 0.0 | 0.01 | 3.59 | 3.59 | 100 | |
| 20260831042215 | 51 | 180 | 0.0 | 0.0 | 0.01 | 3.59 | 3.59 | 100 | |
| 20260831041715 | 51 | 180 | 0.0 | 0.0 | 0.00 | 3.58 | 3.58 | 100 | |
| 20260831041215 | 51 | 180 | 0.0 | 0.0 | 0.00 | 3.58 | 3.58 | 100 | |
| 20260831040715 | 51 | 180 | 0.0 | 0.0 | 0.00 | 3.58 | 3.58 | 100 | |
| 20260831040215 | 51 | 180 | 0.0 | 0.0 | 0.00 | 3.58 | 3.58 | 100 | |
| 20260831035715 | 51 | 180 | 0.0 | 0.0 | 0.00 | 3.58 | 3.58 | 100 | |
| 20260831035215 | 51 | 180 | 0.0 | 0.0 | 0.00 | 3.58 | 3.58 | 100 | |
| 20260831034715 | 51 | 180 | 0.0 | 0.0 | 0.00 | 3.58 | 3.58 | 100 | |
| 20260831034215 | 51 | 180 | 0.0 | 0.0 | 0.00 | 3.58 | 3.58 | 100 | |
| 20260831033715 | 51 | 180 | 0.0 | 0.0 | 0.00 | 3.58 | 3.58 | 100 | |
| 20260831033215 | 51 | 180 | 0.0 | 0.0 | 0.00 | 3.58 | 3.58 | 100 | |
| 20260831032715 | 51 | 180 | 0.0 | 0.0 | 0.00 | 3.58 | 3.58 | 100 | |
| 20260831032215 | 51 | 180 | 0.0 | 0.0 | 0.00 | 3.58 | 3.58 | 100 | |
| 20260831031715 | 52 | 180 | 0.0 | 0.0 | 0.00 | 3.58 | 3.58 | 100 | |
| 20260831031215 | 52 | 180 | 0.0 | 0.0 | 0.00 | 3.58 | 3.58 | 100 | |
| 20260831030715 | 52 | 180 | 0.0 | 0.0 | 0.00 | 3.58 | 3.58 | 100 | |
| 20260831030215 | 52 | 180 | 0.0 | 0.0 | 0.00 | 3.58 | 3.58 | 100 | |
| 20260831025715 | 52 | 180 | 0.0 | 0.0 | 0.00 | 3.58 | 3.58 | 100 | |
| 20260831025215 | 52 | 180 | 0.0 | 0.0 | 0.00 | 3.58 | 3.58 | 100 | |
| 20260831024715 | 52 | 180 | 0.0 | 0.0 | 0.00 | 3.58 | 3.58 | 100 | |
| 20260831024215 | 52 | 180 | 0.0 | 0.0 | 0.00 | 3.58 | 3.58 | 100 | |
| 20260831023715 | 52 | 180 | 0.0 | 0.0 | 0.00 | 3.58 | 3.58 | 100 | |
| 20260831023215 | 52 | 180 | 0.0 | 0.0 | 0.00 | 3.58 | 3.58 | 100 | |
| 20260831022715 | 52 | 180 | 0.0 | 0.0 | 0.00 | 3.58 | 3.58 | 100 | |
| 20260831022215 | 52 | 180 | 0.0 | 0.0 | 0.00 | 3.58 | 3.58 | 100 | |
| 20260831021715 | 52 | 180 | 0.0 | 0.0 | 0.00 | 3.58 | 3.58 | 100 | |
| 20260831021215 | 52 | 180 | 0.0 | 0.0 | 0.00 | 3.58 | 3.58 | 100 | |
| 20260831020715 | 52 | 180 | 0.0 | 0.0 | 0.00 | 3.58 | 3.58 | 100 | |
| 20260831020215 | 52 | 180 | 0.0 | 0.0 | 0.00 | 3.58 | 3.58 | 100 | |
| 20260831015715 | 52 | 180 | 0.0 | 0.0 | 0.00 | 3.58 | 3.58 | 100 | |
| 20260831015215 | 52 | 180 | 0.0 | 0.0 | 0.00 | 3.58 | 3.58 | 100 | |
| 20260831014715 | 52 | 180 | 0.0 | 0.0 | 0.00 | 3.58 | 3.58 | 100 | |
| 20260831014215 | 53 | 180 | 0.0 | 0.0 | 0.00 | 3.58 | 3.58 | 100 | |
| 20260831013715 | 52 | 180 | 0.0 | 0.0 | 0.00 | 3.58 | 3.58 | 100 | |
| 20260831013215 | 52 | 180 | 0.0 | 0.0 | 0.00 | 3.58 | 3.58 | 100 | |
| 20260831012715 | 52 | 180 | 0.0 | 0.0 | 0.00 | 3.58 | 3.58 | 100 | |
| 20260831012215 | 53 | 180 | 0.0 | 0.0 | 0.00 | 3.58 | 3.58 | 100 | |
| 20260831011715 | 53 | 180 | 0.0 | 0.0 | 0.00 | 3.58 | 3.58 | 100 | |
| 20260831011215 | 53 | 180 | 0.0 | 0.0 | 0.00 | 3.58 | 3.58 | 100 | |
| 20260831010715 | 53 | 180 | 0.0 | 0.0 | 0.00 | 3.58 | 3.58 | 100 | |
| 20260831010215 | 53 | 180 | 0.0 | 0.0 | 0.00 | 3.58 | 3.58 | 100 | |
| 20260831005715 | 53 | 180 | 0.0 | 0.0 | 0.00 | 3.58 | 3.58 | 100 | |
| 20260831005215 | 53 | 180 | 0.0 | 0.0 | 0.00 | 3.58 | 3.58 | 100 | |
| 20260831004715 | 53 | 180 | 0.0 | 0.0 | 0.00 | 3.58 | 3.58 | 100 | |
| 20260831004215 | 53 | 180 | 0.0 | 0.0 | 0.00 | 3.58 | 3.58 | 100 | |
| 20260831003715 | 53 | 180 | 0.0 | 0.0 | 0.00 | 3.58 | 3.58 | 100 | |
| 20260831003215 | 53 | 180 | 0.0 | 0.0 | 0.00 | 3.58 | 3.58 | 100 | |
| 20260831002715 | 53 | 180 | 0.0 | 0.0 | 0.00 | 3.58 | 3.58 | 100 | |
| 20260831002215 | 53 | 180 | 0.0 | 0.0 | 0.00 | 3.58 | 3.58 | 100 | |
| 20260831001715 | 53 | 180 | 0.0 | 0.0 | 0.00 | 3.58 | 3.58 | 100 | |
| 20260831001215 | 53 | 180 | 0.0 | 0.0 | 0.00 | 3.58 | 3.58 | 100 | |
| 20260831000715 | 54 | 180 | 0.0 | 0.0 | 0.00 | 3.58 | 3.58 | 100 | |
| 20260831000215 | 54 | 180 | 0.0 | 0.0 | 0.00 | 3.58 | 3.58 | 100 | |
| 20260830235715 | 54 | 180 | 0.0 | 0.0 | 0.00 | 3.58 | 3.58 | 100 | |
| 20260830235215 | 54 | 180 | 0.0 | 0.0 | 0.00 | 3.58 | 3.58 | 100 | |
| 20260830234715 | 54 | 180 | 0.0 | 0.0 | 0.00 | 3.58 | 3.58 | 100 | |
| 20260830234215 | 54 | 180 | 0.0 | 0.0 | 0.00 | 3.58 | 3.58 | 100 | |
| 20260830233715 | 54 | 180 | 0.0 | 0.0 | 0.00 | 3.58 | 3.58 | 100 | |
| 20260830233215 | 54 | 180 | 0.0 | 0.0 | 0.00 | 3.58 | 3.58 | 100 | |
| 20260830232716 | 54 | 180 | 0.0 | 0.0 | 0.00 | 3.58 | 3.58 | 100 | |
| 20260830232215 | 54 | 180 | 0.0 | 0.0 | 0.00 | 3.58 | 3.58 | 100 | |
| 20260830231715 | 54 | 180 | 0.0 | 0.0 | 0.00 | 3.58 | 3.58 | 100 | |
| 20260830231215 | 55 | 180 | 0.0 | 0.0 | 0.00 | 3.58 | 3.58 | 100 | |
| 20260830230715 | 55 | 180 | 0.0 | 0.0 | 0.00 | 3.58 | 3.58 | 100 | |
| 20260830230215 | 55 | 180 | 0.0 | 0.0 | 0.00 | 3.58 | 3.58 | 100 | |
| 20260830225716 | 55 | 180 | 0.0 | 0.0 | 0.00 | 3.58 | 3.58 | 100 | |
| 20260830225216 | 55 | 180 | 0.0 | 0.0 | 0.00 | 3.58 | 3.58 | 100 | |
| 20260830224716 | 55 | 180 | 0.0 | 0.0 | 0.00 | 3.58 | 3.58 | 100 | |
| 20260830224216 | 55 | 180 | 0.0 | 0.0 | 0.00 | 3.58 | 3.58 | 100 | |
| 20260830223716 | 55 | 180 | 0.0 | 0.0 | 0.00 | 3.58 | 3.58 | 100 | |
| 20260830223216 | 55 | 180 | 0.0 | 0.0 | 0.00 | 3.58 | 3.58 | 100 | |
| 20260830222716 | 55 | 180 | 0.0 | 0.0 | 0.00 | 3.58 | 3.58 | 100 | |
| 20260830222216 | 55 | 180 | 0.0 | 0.0 | 0.00 | 3.58 | 3.58 | 100 | |
| 20260830221716 | 55 | 180 | 0.0 | 0.0 | 0.00 | 3.58 | 3.58 | 100 | |
| 20260830221216 | 55 | 180 | 0.0 | 0.0 | 0.00 | 3.58 | 3.58 | 100 | |
| 20260830220716 | 56 | 180 | 0.0 | 0.0 | 0.00 | 3.58 | 3.58 | 100 | |
| 20260830220216 | 55 | 180 | 0.0 | 0.0 | 0.00 | 3.58 | 3.58 | 100 | |
| 20260830215716 | 55 | 180 | 0.0 | 0.0 | 0.00 | 3.58 | 3.58 | 100 | |
| 20260830215216 | 56 | 180 | 0.0 | 0.0 | 0.00 | 3.58 | 3.58 | 100 | |
| 20260830214716 | 56 | 180 | 0.0 | 0.0 | 0.00 | 3.58 | 3.58 | 100 | |
| 20260830214216 | 56 | 180 | 0.0 | 0.0 | 0.00 | 3.58 | 3.58 | 100 | |
| 20260830213716 | 56 | 180 | 0.0 | 0.0 | 0.00 | 3.58 | 3.58 | 100 | |
| 20260830213216 | 56 | 180 | 0.0 | 0.0 | 0.00 | 3.58 | 3.58 | 100 | |
| 20260830212716 | 56 | 180 | 0.0 | 0.0 | 0.00 | 3.58 | 3.58 | 100 | |
| 20260830212216 | 56 | 180 | 0.0 | 0.0 | 0.00 | 3.58 | 3.58 | 100 | |
| 20260830211716 | 56 | 180 | 0.0 | 0.0 | 0.00 | 3.58 | 3.58 | 100 | |
| 20260830211216 | 57 | 180 | 0.0 | 0.0 | 0.00 | 3.58 | 3.58 | 100 | |
| 20260830210716 | 57 | 180 | 0.0 | 0.0 | 0.00 | 3.58 | 3.58 | 100 | |
| 20260830210216 | 57 | 180 | 0.0 | 0.0 | 0.00 | 3.58 | 3.58 | 100 | |
| 20260830205716 | 57 | 180 | 0.0 | 0.0 | 0.00 | 3.58 | 3.58 | 100 | |
| 20260830205216 | 57 | 180 | 0.0 | 0.0 | 0.00 | 3.58 | 3.58 | 100 | |
| 20260830204716 | 57 | 180 | 0.0 | 0.0 | 0.00 | 3.58 | 3.58 | 100 | |
| 20260830204216 | 57 | 180 | 0.0 | 0.0 | 0.00 | 3.58 | 3.58 | 100 | |
| 20260830203716 | 57 | 180 | 0.0 | 0.0 | 0.00 | 3.58 | 3.58 | 100 | |
| 20260830203216 | 57 | 180 | 0.0 | 0.0 | 0.00 | 3.58 | 3.58 | 100 | |
| 20260830202716 | 57 | 180 | 0.0 | 0.0 | 0.00 | 3.58 | 3.58 | 100 | |
| 20260830202216 | 57 | 180 | 0.0 | 0.0 | 0.00 | 3.58 | 3.58 | 100 | |
| 20260830201716 | 57 | 180 | 0.0 | 0.0 | 0.00 | 3.58 | 3.58 | 100 | |
| 20260830201216 | 57 | 180 | 0.0 | 0.0 | 0.00 | 3.58 | 3.58 | 100 | |
| 20260830200716 | 58 | 180 | 0.0 | 0.0 | 0.00 | 3.58 | 3.58 | 100 | |
| 20260830200216 | 58 | 180 | 0.0 | 0.0 | 0.00 | 3.58 | 3.58 | 100 | |
| 20260830195716 | 58 | 180 | 0.0 | 0.0 | 0.00 | 3.58 | 3.58 | 100 | |
| 20260830194716 | 58 | 180 | 0.0 | 0.0 | 0.00 | 3.58 | 3.58 | 100 | |
| 20260830194216 | 58 | 180 | 0.0 | 0.0 | 0.00 | 3.58 | 3.58 | 100 | |
| 20260830193716 | 58 | 180 | 0.0 | 0.0 | 0.00 | 3.58 | 3.58 | 100 | |
| 20260830193216 | 58 | 180 | 0.0 | 0.0 | 0.00 | 3.58 | 3.58 | 100 | |
| 20260830192716 | 58 | 180 | 0.0 | 0.0 | 0.00 | 3.58 | 3.58 | 100 | |
| 20260830192216 | 59 | 180 | 0.0 | 0.0 | 0.00 | 3.58 | 3.58 | 100 | |
| 20260830191716 | 59 | 180 | 0.0 | 0.0 | 0.00 | 3.58 | 3.58 | 100 | |
| 20260830191216 | 59 | 180 | 0.0 | 0.0 | 0.00 | 3.58 | 3.58 | 100 | |
| 20260830190716 | 59 | 180 | 0.0 | 0.0 | 0.00 | 3.58 | 3.58 | 100 | |
| 20260830190216 | 59 | 180 | 0.0 | 0.0 | 0.00 | 3.58 | 3.58 | 100 | |
| 20260830185716 | 59 | 180 | 0.0 | 0.0 | 0.00 | 3.58 | 3.58 | 100 | |
| 20260830185216 | 60 | 180 | 0.0 | 0.0 | 0.00 | 3.58 | 3.58 | 100 | |
| 20260830184716 | 60 | 180 | 0.0 | 0.0 | 0.00 | 3.58 | 3.58 | 100 | |
| 20260830184216 | 60 | 180 | 0.0 | 0.0 | 0.00 | 3.58 | 3.58 | 100 | |
| 20260830183716 | 60 | 180 | 0.0 | 0.0 | 0.00 | 3.58 | 3.58 | 100 | |
| 20260830183216 | 61 | 180 | 0.0 | 0.0 | 0.00 | 3.58 | 3.58 | 100 | |
| 20260830182716 | 61 | 180 | 0.0 | 0.0 | 0.00 | 3.58 | 3.58 | 100 | |
| 20260830182216 | 61 | 180 | 0.0 | 0.0 | 0.00 | 3.58 | 3.58 | 100 | |
| 20260830181716 | 61 | 180 | 0.0 | 0.0 | 0.00 | 3.58 | 3.58 | 100 | |
| 20260830181216 | 62 | 180 | 0.0 | 0.0 | 0.00 | 3.58 | 3.58 | 100 | |
| 20260830180716 | 62 | 180 | 0.0 | 0.0 | 0.00 | 3.58 | 3.58 | 100 | |
| 20260830180216 | 62 | 180 | 0.0 | 0.0 | 0.00 | 3.58 | 3.58 | 100 | |
| 20260830175716 | 63 | 180 | 0.0 | 0.0 | 0.07 | 3.58 | 3.58 | 99 | |
| 20260830175216 | 63 | 180 | 0.0 | 0.0 | 0.07 | 3.58 | 3.58 | 99 | |
| 20260830174716 | 64 | 180 | 0.0 | 0.0 | 0.07 | 3.58 | 3.58 | 98 | |
| 20260830174216 | 64 | 180 | 0.0 | 0.0 | 0.07 | 3.58 | 3.58 | 98 | |
| 20260830173716 | 65 | 180 | 0.0 | 0.0 | 0.32 | 3.58 | 3.58 | 97 | |
| 20260830173216 | 65 | 180 | 0.0 | 0.0 | 0.70 | 3.58 | 3.58 | 97 | |
| 20260830172716 | 66 | 180 | 0.0 | 0.0 | 0.77 | 3.58 | 3.58 | 96 | |
| 20260830172216 | 66 | 180 | 0.0 | 0.0 | 0.91 | 3.58 | 3.58 | 96 | |
| 20260830171716 | 67 | 180 | 0.0 | 0.0 | 1.06 | 3.58 | 3.58 | 94 | |
| 20260830171216 | 68 | 180 | 0.0 | 0.0 | 1.36 | 3.58 | 3.58 | 92 | |
| 20260830170716 | 68 | 180 | 0.0 | 0.0 | 1.44 | 3.58 | 3.58 | 89 | |
| 20260830170216 | 69 | 180 | 0.0 | 0.0 | 1.46 | 3.58 | 3.58 | 87 | |
| 20260830165716 | 70 | 180 | 0.0 | 0.0 | 1.45 | 3.51 | 3.51 | 83 | |
| 20260830165216 | 71 | 180 | 0.0 | 0.0 | 1.54 | 3.51 | 3.51 | 79 | |
| 20260830164716 | 72 | 180 | 0.0 | 0.0 | 2.13 | 3.51 | 3.51 | 76 | |
| 20260830164216 | 73 | 180 | 0.0 | 0.0 | 2.35 | 3.51 | 3.51 | 73 | |
| 20260830163716 | 73 | 180 | 0.0 | 0.0 | 2.67 | 3.26 | 3.26 | 70 | |
| 20260830163216 | 74 | 180 | 0.0 | 0.0 | 2.53 | 2.88 | 2.88 | 69 | |
| 20260830162716 | 75 | 180 | 0.0 | 0.0 | 2.62 | 2.81 | 2.81 | 67 | |
| 20260830162217 | 75 | 180 | 0.0 | 0.0 | 2.60 | 2.67 | 2.67 | 64 | |
| 20260830161717 | 76 | 180 | 0.0 | 0.0 | 2.61 | 2.52 | 2.52 | 61 | |
| 20260830161217 | 77 | 180 | 0.0 | 0.0 | 2.39 | 2.22 | 2.22 | 59 | |
| 20260830160717 | 77 | 180 | 0.0 | 0.0 | 2.58 | 2.14 | 2.14 | 58 | |
| 20260830160217 | 78 | 180 | 0.0 | 0.0 | 2.90 | 2.12 | 2.12 | 56 | |
| 20260830155717 | 78 | 180 | 0.0 | 0.0 | 3.19 | 2.06 | 2.06 | 54 | |
| 20260830155217 | 78 | 180 | 0.0 | 1.0 | 3.54 | 1.97 | 1.97 | 52 | |
| 20260830154717 | 79 | 180 | 0.0 | 0.0 | 3.01 | 1.38 | 1.38 | 51 | |
| 20260830154217 | 79 | 180 | 0.0 | 0.0 | 3.24 | 1.16 | 1.15 | 48 | |
| 20260830153717 | 80 | 180 | 0.0 | 0.0 | 3.50 | 0.59 | 0.59 | 49 | |
| 20260830153217 | 80 | 180 | 0.0 | 0.0 | 3.74 | 0.35 | 0.35 | 46 | |
| 20260830152717 | 80 | 180 | 0.0 | 0.0 | 4.71 | 0.19 | 0.19 | 46 | |
| 20260830152217 | 80 | 180 | 0.0 | 0.0 | 5.43 | 0.07 | 0.07 | 45 | |
| 20260830151717 | 80 | 180 | 0.0 | 0.0 | 6.93 | 9.91 | 9.91 | 44 | |
| 20260830151217 | 81 | 180 | 0.0 | 2.0 | 7.87 | 9.83 | 9.83 | 43 | |
| 20260830150717 | 81 | 180 | 0.0 | 2.0 | 8.81 | 9.56 | 9.56 | 38 | |
| 20260830150217 | 81 | 180 | 0.0 | 0.0 | 9.15 | 9.22 | 9.22 | 39 | |
| 20260830145717 | 81 | 180 | 0.0 | 2.0 | 8.80 | 8.87 | 8.87 | 41 | |
| 20260830145217 | 81 | 180 | 2.0 | 3.0 | 8.36 | 8.43 | 8.43 | 37 | |
| 20260830144717 | 81 | 180 | 0.0 | 5.0 | 8.30 | 8.37 | 8.37 | 37 | |
| 20260830144217 | 81 | 180 | 0.0 | 3.0 | 7.85 | 7.92 | 7.92 | 39 | |
| 20260830143717 | 81 | 180 | 2.0 | 2.0 | 7.02 | 7.09 | 7.08 | 38 | |
| 20260830143217 | 81 | 180 | 0.0 | 0.0 | 6.54 | 6.61 | 6.61 | 37 | |
| 20260830142717 | 81 | 180 | 0.0 | 4.0 | 5.41 | 5.48 | 5.48 | 40 | |
| 20260830142217 | 81 | 180 | 0.0 | 3.0 | 4.57 | 4.64 | 4.62 | 37 | |
| 20260830141717 | 81 | 180 | 3.0 | 3.0 | 2.91 | 2.98 | 2.98 | 36 | |
| 20260830141217 | 81 | 180 | 0.0 | 3.0 | 1.89 | 1.96 | 1.95 | 36 | |
| 20260830140717 | 81 | 180 | 0.0 | 3.0 | 0.68 | 0.75 | 0.71 | 38 | |
| 20260830140217 | 81 | 180 | 1.0 | 4.0 | 0.00 | 0.07 | 0.07 | 37 | |
| 20260830135717 | 81 | 180 | 2.0 | 4.0 | 0.02 | 0.07 | 0.07 | 38 | |
| 20260830135217 | 81 | 180 | 2.0 | 5.0 | 0.02 | 0.07 | 0.07 | 38 | |
| 20260830134717 | 81 | 180 | 3.0 | 4.0 | 0.02 | 0.07 | 0.07 | 38 | |
| 20260830134217 | 81 | 180 | 1.0 | 5.0 | 0.02 | 0.07 | 0.07 | 38 | |
| 20260830133717 | 81 | 180 | 0.0 | 4.0 | 0.02 | 0.07 | 0.07 | 41 | |
| 20260830133217 | 81 | 180 | 0.0 | 3.0 | 0.02 | 0.07 | 0.07 | 40 | |
| 20260830132717 | 80 | 180 | 0.0 | 2.0 | 0.02 | 0.07 | 0.07 | 41 | |
| 20260830132217 | 80 | 180 | 0.0 | 5.0 | 0.02 | 0.07 | 0.07 | 41 | |
| 20260830131717 | 81 | 180 | 2.0 | 7.0 | 0.02 | 0.07 | 0.07 | 41 | |
| 20260830131217 | 80 | 180 | 0.0 | 2.0 | 0.02 | 0.07 | 0.07 | 40 | |
| 20260830130717 | 80 | 180 | 2.0 | 3.0 | 0.02 | 0.07 | 0.07 | 41 | |
| 20260830130217 | 80 | 180 | 0.0 | 0.0 | 0.02 | 0.07 | 0.07 | 41 | |
| 20260830125717 | 80 | 180 | 0.0 | 4.0 | 0.00 | 0.05 | 0.05 | 41 | |
| 20260830125217 | 80 | 180 | 0.0 | 3.0 | 0.00 | 0.05 | 0.05 | 42 | |
| 20260830124717 | 81 | 180 | 1.0 | 2.0 | 0.00 | 0.05 | 0.05 | 40 | |
| 20260830124217 | 81 | 180 | 0.0 | 1.0 | 0.00 | 0.05 | 0.05 | 41 | |
| 20260830123717 | 80 | 180 | 0.0 | 4.0 | 0.00 | 0.05 | 0.05 | 41 | |
| 20260830123217 | 80 | 180 | 0.0 | 1.0 | 0.00 | 0.05 | 0.05 | 42 | |
| 20260830122717 | 80 | 180 | 0.0 | 4.0 | 0.00 | 0.05 | 0.05 | 43 | |
| 20260830122217 | 79 | 180 | 0.0 | 4.0 | 0.00 | 0.05 | 0.05 | 43 | |
| 20260830121717 | 79 | 180 | 3.0 | 5.0 | 0.01 | 0.05 | 0.05 | 44 | |
| 20260830121217 | 79 | 180 | 3.0 | 4.0 | 0.01 | 0.05 | 0.05 | 43 | |
| 20260830120717 | 79 | 180 | 2.0 | 3.0 | 0.01 | 0.05 | 0.05 | 45 | |
| 20260830120217 | 79 | 180 | 2.0 | 4.0 | 0.02 | 0.05 | 0.05 | 43 | |
| 20260830115717 | 79 | 180 | 0.0 | 0.0 | 0.03 | 0.05 | 0.05 | 45 | |
| 20260830115217 | 78 | 180 | 0.0 | 0.0 | 0.04 | 0.05 | 0.05 | 45 | |
| 20260830114717 | 78 | 180 | 0.0 | 4.0 | 0.04 | 0.05 | 0.05 | 46 | |
| 20260830114217 | 78 | 180 | 0.0 | 3.0 | 0.04 | 0.05 | 0.05 | 46 | |
| 20260830113717 | 79 | 180 | 2.0 | 4.0 | 0.04 | 0.05 | 0.05 | 45 | |
| 20260830113217 | 78 | 180 | 0.0 | 5.0 | 0.04 | 0.05 | 0.05 | 43 | |
| 20260830112717 | 79 | 180 | 2.0 | 3.0 | 0.05 | 0.05 | 0.05 | 46 | |
| 20260830112217 | 78 | 180 | 0.0 | 4.0 | 0.05 | 0.05 | 0.05 | 46 |